Location: Newark
(51.2625°N, 13.3939°E)
Time: 00:30:40
(UTC+00:00)

Explorer 7 - Pass Details

Date: 14 November 2019
Orbit: 485 x 680 km, 50.3° (Epoch: 07 December)

Event Time Altitude Azimuth Distance (km) Brightness Sun altitude
Rises 02:01:25 0° 236° (WSW) 2,851 - -40.0°
Reaches altitude 10° 02:03:49 10° 231° (SW) 1,915 - -39.7°
Maximum altitude 02:08:00 47° 158° (SSE) 754 - -39.1°
Drops below altitude 10° 02:11:57 10° 84° (E) 1,803 - -38.5°
Exits shadow 02:12:21 - 83° (E) 1,954 10.3 -38.4°
Sets 02:14:10 0° 79° (ENE) 2,665 11.2 -38.2°
